Engineering
NORAD ID: 26093
Int'l Code: 2000-004L
Perigee: 719.7 km
Apogee: 763.5 km
Inclination: 100.2 °
Period: 99.5 minutes
Semi major axis: 7112 km
Launch date: January 27, 2000
Source: United States (US)
Two Line Element Set (TLE):
1 26093U 00004L 13165.40854032 .00000463 00000-0 14280-3 0 5421
2 26093 100.1990 306.8503 0030791 301.9309 057.8884 14.47309325702751
Source:
NASA's NSSDC Master Catalog entry for PICOSAT 5